ゲーレルス第2彗星

78P/Gehrels 2 (2026)

English version
Home page
Updated on June 5, 2021

---------------------------------------------------------------------

・ プロフィール

・ 軌道要素

Epoch 2026 June 9.0 TT = JDT 2461200.5
T 2026 June 25.07976 TT                                 MPCW
q   2.0045112            (2000.0)            P               Q
n   0.13672719     Peri.  192.79192     +0.72860638     -0.68269565
a   3.7316375      Node   210.49436     +0.63762297     +0.70555675
e   0.4628334      Incl.    6.25760     +0.25013933     +0.19004293
P   7.21
From 5333 observations 1996 June 18-2014 Apr. 1, mean residual 0".6.
     Nongravitational parameters A1 = +0.81, A2 = -0.1244.

・ 星図

・ 光度変化

        m1 =  1.0 + 5 logΔ + 30.0 log r  [   ,  0]  (              〜2026年 6月25日)
        m1 =  4.0 + 5 logΔ + 20.0 log r  [  0,190]  (2026年 6月25日〜2027年 1月 1日)
        m1 =  0.0 + 5 logΔ + 30.0 log r  [190,375]  (2027年 1月 1日〜2027年 7月 5日)
        m1 = 10.5 + 5 logΔ + 10.0 log r  [375,   ]  (2027年 7月 5日〜               )

---------------------------------------------------------------------

軌道要素はM.P.E.C. 2016-U66に掲載されたものです。
星図はステラナビゲータ Ver.10 (アストロアーツ) で作成したものです。
光度グラフはComet for Windowsで作成したものです。

---------------------------------------------------------------------

Copyright(C) Seiichi Yoshida (comet@aerith.net). All rights reserved.